Elkins, WV

2:14 AM EST on November 15, 2019 (GMT -0500)
Elkins-Randolph County

Weather History for KEKN - September, 2019

Change the Weather History Date:

Thursday, September 12, 2019

  Actual Average Record
Temperature  
Mean Temperature 74 °F 64 °F  
Max Temperature 87 °F 75 °F 92 °F (1952)
Min Temperature 61 °F 52 °F 34 °F (1917)
Degree Days  
Heating Degree Days 0 3  
Month to date heating degree days 0 25  
Since 1 July heating degree days 7 55  
Cooling Degree Days 9 2  
Month to date cooling degree days 68 29  
Year to date cooling degree days 739 455  
Growing Degree Days 24 (Base 50)    
Moisture  
Dew Point 63 °F    
Average Humidity 79    
Maximum Humidity 94    
Minimum Humidity 48    
Precipitation  
Precipitation T in 0.12 in 1.74 in (1971)
Month to date precipitation T 1.44  
Year to date precipitation 37.71 34.25  
Snow  
Snow 0.00 in 0.00 in 0.00 in (2017)
Month to date snowfall 0.0 0.0  
Since 1 September snowfall 0.0 0.0  
Snow Depth 0.00 in    
Sea Level Pressure  
Sea Level Pressure 30.19 in    
Wind  
Wind Speed 1 mph ()    
Max Wind Speed 13 mph    
Max Gust Speed 16 mph    
Visibility 5.3 miles    
Events Fog , Thunderstorm    
T = Trace of Precipitation, MM = Missing Value Source: Averaged Metar Reports

Daily Weather History Graph

Daily Weather History Graph

Search for Another Location

Airport or City:

Astronomy

Sep. 12, 2019 Rise Set
Actual Time 6:57 AM EDT 7:32 PM EDT
Civil Twilight 6:31 AM EDT 7:59 PM EDT
Nautical Twilight 5:59 AM EDT 8:31 PM EDT
Astronomical Twilight 5:26 AM EDT 9:03 PM EDT
Moon 7:15 PM EDT (9/12) 5:17 AM EDT (9/12)
Length of Visible Light 13h 28m
Length of Day
12h 34m
Waxing Gibbous, 98% of the Moon is Illuminated
Sep 12
Waxing Gibbous
Sep 14
Full
Sep 21
Last Quarter
Sep 28
New
Oct 5
First Quarter

Hourly Weather History & Observations

Time (EDT) Temp. Heat Index Dew Point Humidity Pressure Visibility Wind Dir Wind Speed Gust Speed Precip Events Conditions
12:51 AM 66.9 °F - 64.0 °F 90% 30.17 in 6.0 mi Calm Calm - N/A   Mostly Cloudy
1:51 AM 66.0 °F - 63.0 °F 90% 30.16 in 2.5 mi Calm Calm - N/A   Clear
2:04 AM 66.0 °F - 63.0 °F 90% 30.20 in 4.0 mi Calm Calm - N/A   Partly Cloudy
2:51 AM 64.9 °F - 62.1 °F 90% 30.15 in 5.0 mi Calm Calm - N/A   Clear
3:02 AM 64.9 °F - 62.1 °F 90% 30.19 in 2.0 mi Calm Calm - N/A   Partly Cloudy
3:12 AM 64.0 °F - 62.1 °F 93% 30.19 in 0.5 mi Calm Calm - N/A Fog Fog
3:36 AM 63.0 °F - 61.0 °F 93% 30.19 in 0.2 mi Calm Calm - N/A Fog Fog
3:51 AM 64.0 °F - 62.1 °F 93% 30.15 in 0.2 mi Calm Calm - N/A Fog Fog
4:06 AM 63.0 °F - 61.0 °F 93% 30.20 in 0.5 mi Calm Calm - N/A Fog Fog
4:13 AM 63.0 °F - 61.0 °F 93% 30.20 in 0.2 mi Calm Calm - N/A Fog Fog
4:51 AM 63.0 °F - 60.1 °F 90% 30.17 in 0.2 mi Calm Calm - N/A Fog Fog
5:25 AM 62.6 °F - 59.0 °F 88% 30.21 in 0.5 mi Calm Calm - N/A Fog Fog
5:36 AM 62.1 °F - 60.1 °F 93% 30.21 in 0.2 mi Calm Calm - N/A Fog Fog
5:47 AM 62.6 °F - 60.8 °F 94% 30.21 in 0.5 mi Calm Calm - N/A Fog Fog
5:51 AM 63.0 °F - 60.1 °F 90% 30.18 in 0.5 mi Calm Calm - N/A Fog Fog
6:05 AM 62.1 °F - 59.0 °F 90% 30.21 in 0.2 mi Calm Calm - N/A Fog Fog
6:51 AM 62.1 °F - 60.1 °F 93% 30.20 in 0.2 mi Calm Calm - N/A Fog Fog
7:32 AM 63.0 °F - 60.1 °F 90% 30.24 in 2.0 mi Calm Calm - N/A   Scattered Clouds
7:51 AM 64.0 °F - 61.0 °F 90% 30.22 in 3.0 mi Calm Calm - N/A   Clear
8:12 AM 66.0 °F - 62.1 °F 87% 30.24 in 2.5 mi Calm Calm - N/A   Clear
8:19 AM 66.0 °F - 63.0 °F 90% 30.24 in 3.0 mi Calm Calm - N/A   Clear
8:51 AM 68.0 °F - 64.0 °F 87% 30.22 in 5.0 mi Calm Calm - N/A   Clear
9:51 AM 75.0 °F - 66.9 °F 76% 30.22 in 10.0 mi Calm Calm - N/A   Clear
10:51 AM 81.0 °F 83.8 °F 68.0 °F 65% 30.21 in 10.0 mi NNW 3.5 mph - N/A   Clear
11:51 AM 82.0 °F 84.1 °F 66.0 °F 58% 30.20 in 10.0 mi WNW 8.1 mph - N/A   Mostly Cloudy
12:51 PM 82.0 °F 83.8 °F 64.9 °F 56% 30.19 in 10.0 mi NW 6.9 mph - N/A   Mostly Cloudy
1:51 PM 86.0 °F 87.3 °F 64.0 °F 48% 30.17 in 10.0 mi NW 6.9 mph - N/A   Partly Cloudy
2:51 PM 80.1 °F 81.7 °F 64.0 °F 58% 30.17 in 10.0 mi WSW 10.4 mph - N/A   Partly Cloudy
3:37 PM 82.0 °F 83.4 °F 64.0 °F 54% 30.20 in 10.0 mi NNW 3.5 mph - 0.00 in Thunderstorm Partly Cloudy
3:51 PM 82.0 °F 83.8 °F 64.9 °F 56% 30.17 in 10.0 mi Calm Calm - 0.00 in   Clear
4:51 PM 86.0 °F 87.6 °F 64.9 °F 49% 30.15 in 10.0 mi WSW 9.2 mph - N/A   Clear
5:51 PM 84.9 °F 87.1 °F 66.0 °F 53% 30.15 in 10.0 mi West 5.8 mph - N/A   Clear
6:30 PM 84.0 °F 86.5 °F 66.9 °F 56% 30.18 in 10.0 mi West 4.6 mph - N/A Thunderstorm Clear
6:51 PM 82.9 °F 85.4 °F 66.9 °F 58% 30.16 in 10.0 mi Calm Calm - N/A Thunderstorm Clear
7:09 PM 80.1 °F 82.9 °F 69.1 °F 69% 30.19 in 10.0 mi Calm Calm - N/A   Partly Cloudy
7:51 PM 78.1 °F - 68.0 °F 71% 30.17 in 10.0 mi Calm Calm - N/A   Overcast
8:51 PM 73.0 °F - 64.9 °F 76% 30.19 in 10.0 mi Calm Calm - N/A   Scattered Clouds
9:51 PM 70.0 °F - 64.9 °F 84% 30.20 in 9.0 mi Calm Calm - N/A   Partly Cloudy
10:51 PM 68.0 °F - 64.0 °F 87% 30.20 in 7.0 mi Calm Calm - N/A   Clear